Regional Weather Roundup
Issued by NWS Bismarck, ND

Home | Current Version | Previous Version | Text Only | Print | Product List | Glossary On
Versions: 1 2 3 4 5 6 7 8 9 10 11 12 13 14 15 16 17 18 19 20 21 22 23 24 25 26 27 28 29 30 31 32 33 34 35 36 37 38 39 40 41 42 43 44 45 46 47 48 49 50
000
ASUS43 KBIS 291920
RWRBIS

NWR BROADCAST TEXT
NATIONAL WEATHER SERVICE BISMARCK ND
200 PM CDT FRI AUG 29 2014

NOTE: "FAIR" INDICATES FEW OR NO CLOUDS BELOW 12,000 FEET WITH NO
SIGNIFICANT WEATHER AND/OR OBSTRUCTIONS TO VISIBILITY.


CITY           SKY/WX    TMP DP  RH WIND       PRES   REMARKS
WILLISTON      PTSUNNY   70  51  51 N10       29.98S
MINOT          CLOUDY    66  55  67 N16       29.93R
MINOT AFB      CLOUDY    65  55  68 N16       29.93R
BISMARCK       CLOUDY    70  60  70 N17G23    29.90S
DICKINSON      CLOUDY    65  55  70 NW13G21   29.97S
GARRISON         N/A     67  56  67 N12G22    29.92R
HETTINGER ARPT PTSUNNY   70  57  63 NW15G25   29.97S
JAMESTOWN      CLOUDY    72  63  73 NW14      29.80R
BEACH            N/A     66  57  72 N6        30.02S
CARRINGTON     CLOUDY    64  64 100 NW16G25   29.85R
CROSBY         MOCLDY    68  50  52 N7        29.99S
HARVEY         CLOUDY    63  59  88 N15G24    29.89R
HAZEN          CLOUDY    66  57  72 N12       29.94R
LINTON         FAIR      68  63  83 NW14G21   29.88R
MANDAN         CLOUDY    68  59  73 NW20G25   29.91R
OAKES            N/A     75  66  73 NW9       29.79F
RUGBY          MOCLDY    66  55  68 N17G25    29.90R
STANLEY        MOCLDY    66  55  68 N12G20    29.97S
TIOGA          MOCLDY    70  48  46 N10       30.01S
WATFORD CITY   MOCLDY    66  54  63 NE7       29.97S
$$

CITY           SKY/WX    TMP DP  RH WIND       PRES   REMARKS
GRAND FORKS    CLOUDY    71  65  81 CALM      29.76S
GRAND FORKS AF CLOUDY    70  69  99 NE1       29.77S
DEVILS LAKE    CLOUDY    63  54  72 N26       29.83R
FARGO          CLOUDY    73  65  75 CALM      29.76F
CANDO          CLOUDY    63  57  82 N20G26    29.88R
CAVALIER       CLOUDY    63  61  94 N16G24    29.81R FOG
GRAFTON        MOCLDY    72  66  83 NW8       29.77R
GWINNER        CLOUDY    72  70  94 NW5       29.80S
LANGDON        CLOUDY    61  55  82 N21       29.86R
ROLLA          CLOUDY    57  57 100 N17G23    29.93R
WALHALLA         N/A     61  61 100 N18G24    29.85R
$$

CITY           SKY/WX    TMP DP  RH WIND       PRES   REMARKS
ABERDEEN       PTSUNNY   74  68  81 VRB6      29.80S
MOBRIDGE       MOSUNNY   75  57  53 N16       29.84R
BUFFALO          N/A     72  55  55 NW23G31   29.94R
RAPID CITY     PTSUNNY   73  52  47 NW18      30.01S
GLASGOW        MOSUNNY   66  52  60 NW5       30.02F
SIDNEY         MOSUNNY   70  55  60 N8        30.01S
WOLF POINT     CLOUDY    71  51  49 VRB5      30.02S
GLENDIVE       CLOUDY    68  55  64 N7        30.03S
MILES CITY     PTSUNNY   68  51  54 N7        30.05S
BAKER          CLOUDY    67  54  63 N14       30.04S
$$

CITY           SKY/WX    TMP DP  RH WIND       PRES   REMARKS
BILLINGS       MOSUNNY   70  52  52 VRB3      30.05F
GREAT FALLS    SUNNY     72  45  37 CALM      29.98F
REGINA         MOSUNNY   66  50  55 N10       30.01F
ESTEVAN        PTSUNNY   68  50  52 N5        29.98F
$$




USA.gov is the U.S. government's official web portal to all federal, state and local government web resources and services.